Year,Month,Day,Hour,Minute,Value (Times are PST for temperature in C)
2009,06,03,00,00,18.40
2009,06,03,00,05,18.20
2009,06,03,00,06,18.20
2009,06,03,00,07,18.20
2009,06,03,00,08,18.10
2009,06,03,00,09,18.10
2009,06,03,00,10,18.10
2009,06,03,00,11,18.10
2009,06,03,00,12,18.10
2009,06,03,00,13,18.10
2009,06,03,00,14,18.10
2009,06,03,00,15,18.10
2009,06,03,00,16,18.10
2009,06,03,00,17,18.00
2009,06,03,00,18,18.00
2009,06,03,00,19,17.90
2009,06,03,00,20,17.90
2009,06,03,00,21,17.90
2009,06,03,00,22,17.80
2009,06,03,00,23,17.80
2009,06,03,00,24,17.80
2009,06,03,00,25,17.80
2009,06,03,00,26,17.70
2009,06,03,00,27,17.70
2009,06,03,00,28,17.70
2009,06,03,00,29,17.60
2009,06,03,00,30,17.50
2009,06,03,00,31,17.50
2009,06,03,00,32,17.40
2009,06,03,00,33,17.40
2009,06,03,00,34,17.30
2009,06,03,00,35,17.30
2009,06,03,00,36,17.30
2009,06,03,00,37,17.20
2009,06,03,00,38,17.20
2009,06,03,00,39,17.10
2009,06,03,00,40,17.10
2009,06,03,00,41,17.10
2009,06,03,00,42,17.00
2009,06,03,00,43,17.00
2009,06,03,00,44,16.90
2009,06,03,00,45,16.90
2009,06,03,00,46,16.90
2009,06,03,00,47,16.90
2009,06,03,00,48,16.90
2009,06,03,00,49,16.80
2009,06,03,00,50,16.80
2009,06,03,00,51,16.80
2009,06,03,00,52,16.70
2009,06,03,00,53,16.70
2009,06,03,00,54,16.70
2009,06,03,00,55,16.70
2009,06,03,00,56,16.70
2009,06,03,00,57,16.60
2009,06,03,00,58,16.60
2009,06,03,00,59,16.50
2009,06,03,01,00,16.60
2009,06,03,01,01,16.60
2009,06,03,01,02,16.60
2009,06,03,01,03,16.60
2009,06,03,01,04,16.60
2009,06,03,01,05,16.60
2009,06,03,01,06,16.70
2009,06,03,01,07,16.70
2009,06,03,01,08,16.90
2009,06,03,01,09,16.90
2009,06,03,01,10,17.00
2009,06,03,01,11,17.00
2009,06,03,01,12,17.10
2009,06,03,01,13,17.20
2009,06,03,01,14,17.30
2009,06,03,01,15,17.30
2009,06,03,01,16,17.40
2009,06,03,01,17,17.50
2009,06,03,01,18,17.60
2009,06,03,01,19,17.70
2009,06,03,01,20,17.80
2009,06,03,01,21,17.90
2009,06,03,01,22,18.00
2009,06,03,01,23,18.10
2009,06,03,01,24,18.20
2009,06,03,01,25,18.20
2009,06,03,01,26,18.20
2009,06,03,01,27,18.20
2009,06,03,01,28,18.20
2009,06,03,01,29,18.20
2009,06,03,01,30,18.10
2009,06,03,01,31,18.10
2009,06,03,01,32,18.10
2009,06,03,01,33,18.10
2009,06,03,01,34,18.10
2009,06,03,01,35,18.10
2009,06,03,01,36,18.10
2009,06,03,01,37,18.00
2009,06,03,01,38,17.90
2009,06,03,01,39,17.90
2009,06,03,01,40,17.90
2009,06,03,01,41,17.90
2009,06,03,01,42,17.90
2009,06,03,01,43,17.90
2009,06,03,01,44,17.90
2009,06,03,01,45,17.90
2009,06,03,01,46,17.90
2009,06,03,01,47,17.90
2009,06,03,01,48,17.90
2009,06,03,01,49,17.80
2009,06,03,01,50,17.80
2009,06,03,01,51,17.80
2009,06,03,01,52,17.80
2009,06,03,01,53,17.90
2009,06,03,01,54,18.00
2009,06,03,01,55,18.10
2009,06,03,01,56,18.10
2009,06,03,01,57,18.10
2009,06,03,01,58,18.10
2009,06,03,01,59,18.10
2009,06,03,02,00,18.10
2009,06,03,02,01,18.10
2009,06,03,02,02,18.10
2009,06,03,02,03,18.20
2009,06,03,02,04,18.30
2009,06,03,02,05,18.30
2009,06,03,02,06,18.40
2009,06,03,02,07,18.40
2009,06,03,02,08,18.60
2009,06,03,02,09,18.60
2009,06,03,02,10,18.70
2009,06,03,02,11,18.70
2009,06,03,02,12,18.80
2009,06,03,02,13,18.80
2009,06,03,02,14,18.90
2009,06,03,02,15,18.90
2009,06,03,02,16,18.90
2009,06,03,02,17,18.80
2009,06,03,02,18,18.70
2009,06,03,02,19,18.70
2009,06,03,02,20,18.70
2009,06,03,02,21,18.70
2009,06,03,02,22,18.60
2009,06,03,02,23,18.60
2009,06,03,02,24,18.60
2009,06,03,02,25,18.60
2009,06,03,02,26,18.70
2009,06,03,02,27,18.70
2009,06,03,02,28,18.60
2009,06,03,02,29,18.60
2009,06,03,02,30,18.70
2009,06,03,02,31,18.70
2009,06,03,02,32,18.60
2009,06,03,02,33,18.60
2009,06,03,02,34,18.70
2009,06,03,02,35,18.70
2009,06,03,02,36,18.70
2009,06,03,02,37,18.70
2009,06,03,02,38,18.60
2009,06,03,02,39,18.50
2009,06,03,02,40,18.40
2009,06,03,02,41,18.30
2009,06,03,02,42,18.10
2009,06,03,02,43,18.00
2009,06,03,02,44,17.90
2009,06,03,02,45,17.80
2009,06,03,02,46,17.70
2009,06,03,02,47,17.60
2009,06,03,02,48,17.70
2009,06,03,02,49,17.80
2009,06,03,02,50,17.80
2009,06,03,02,51,17.80
2009,06,03,02,52,17.80
2009,06,03,02,53,17.80
2009,06,03,02,54,17.80
2009,06,03,02,55,17.80
2009,06,03,02,56,17.70
2009,06,03,02,57,17.70
2009,06,03,02,58,17.70
2009,06,03,02,59,17.90
2009,06,03,03,00,18.10
2009,06,03,03,01,18.20
2009,06,03,03,02,18.20
2009,06,03,03,03,18.20
2009,06,03,03,04,18.20
2009,06,03,03,05,18.30
2009,06,03,03,06,18.40
2009,06,03,03,07,18.40
2009,06,03,03,08,18.40
2009,06,03,03,09,18.30
2009,06,03,03,10,18.30
2009,06,03,03,11,18.20
2009,06,03,03,12,18.20
2009,06,03,03,13,18.10
2009,06,03,03,14,18.00
2009,06,03,03,15,17.90
2009,06,03,03,16,17.80
2009,06,03,03,17,17.70
2009,06,03,03,18,17.60
2009,06,03,03,19,17.50
2009,06,03,03,20,17.40
2009,06,03,03,21,17.40
2009,06,03,03,22,17.30
2009,06,03,03,23,17.20
2009,06,03,03,24,17.20
2009,06,03,03,25,17.10
2009,06,03,03,26,17.00
2009,06,03,03,27,16.90
2009,06,03,03,28,16.90
2009,06,03,03,29,16.90
2009,06,03,03,30,16.80
2009,06,03,03,31,16.80
2009,06,03,03,32,16.80
2009,06,03,03,33,16.90
2009,06,03,03,34,16.90
2009,06,03,03,35,16.90
2009,06,03,03,36,16.90
2009,06,03,03,37,16.90
2009,06,03,03,38,16.90
2009,06,03,03,39,16.90
2009,06,03,03,40,16.90
2009,06,03,03,41,16.90
2009,06,03,03,42,16.90
2009,06,03,03,43,16.90
2009,06,03,03,44,16.90
2009,06,03,03,45,16.90
2009,06,03,03,46,16.90
2009,06,03,03,47,17.00
2009,06,03,03,48,17.00
2009,06,03,03,49,17.00
2009,06,03,03,50,17.00
2009,06,03,03,51,17.00
2009,06,03,03,52,16.90
2009,06,03,03,53,16.90
2009,06,03,03,54,16.80
2009,06,03,03,55,16.80
2009,06,03,03,56,16.80
2009,06,03,03,57,16.80
2009,06,03,03,58,16.70
2009,06,03,03,59,16.60
2009,06,03,04,00,16.70
2009,06,03,04,01,16.60
2009,06,03,04,02,16.60
2009,06,03,04,03,16.50
2009,06,03,04,04,16.50
2009,06,03,04,05,16.40
2009,06,03,04,06,16.50
2009,06,03,04,07,16.50
2009,06,03,04,08,16.40
2009,06,03,04,09,16.40
2009,06,03,04,10,16.40
2009,06,03,04,11,16.50
2009,06,03,04,12,16.50
2009,06,03,04,13,16.60
2009,06,03,04,14,16.60
2009,06,03,04,15,16.60
2009,06,03,04,16,16.60
2009,06,03,04,17,16.50
2009,06,03,04,18,16.50
2009,06,03,04,19,16.50
2009,06,03,04,20,16.50
2009,06,03,04,21,16.50
2009,06,03,04,22,16.50
2009,06,03,04,23,16.50
2009,06,03,04,24,16.40
2009,06,03,04,25,16.50
2009,06,03,04,26,16.40
2009,06,03,04,27,16.40
2009,06,03,04,28,16.40
2009,06,03,04,29,16.40
2009,06,03,04,30,16.40
2009,06,03,04,31,16.30
2009,06,03,04,32,16.30
2009,06,03,04,33,16.30
2009,06,03,04,34,16.30
2009,06,03,04,35,16.20
2009,06,03,04,36,16.20
2009,06,03,04,37,16.20
2009,06,03,04,38,16.20
2009,06,03,04,39,16.10
2009,06,03,04,40,16.10
2009,06,03,04,41,16.10
2009,06,03,04,42,16.10
2009,06,03,04,43,16.10
2009,06,03,04,44,16.10
2009,06,03,04,45,16.10
2009,06,03,04,46,16.10
2009,06,03,04,47,16.10
2009,06,03,04,48,16.10
2009,06,03,04,49,16.10
2009,06,03,04,50,16.00
2009,06,03,04,51,16.00
2009,06,03,04,52,15.90
2009,06,03,04,53,15.80
2009,06,03,04,54,15.70
2009,06,03,04,55,15.70
2009,06,03,04,56,15.60
2009,06,03,04,57,15.60
2009,06,03,04,58,15.50
2009,06,03,04,59,15.50
2009,06,03,05,00,15.40
2009,06,03,05,01,15.40
2009,06,03,05,02,15.30
2009,06,03,05,03,15.30
2009,06,03,05,04,15.30
2009,06,03,05,05,15.30
2009,06,03,05,06,15.30
2009,06,03,05,07,15.40
2009,06,03,05,08,15.40
2009,06,03,05,09,15.50
2009,06,03,05,10,15.50
2009,06,03,05,11,15.60
2009,06,03,05,12,15.60
2009,06,03,05,13,15.70
2009,06,03,05,14,15.70
2009,06,03,05,15,15.80
2009,06,03,05,16,15.70
2009,06,03,05,17,15.70
2009,06,03,05,18,15.80
2009,06,03,05,19,15.80
2009,06,03,05,20,15.70
2009,06,03,05,21,15.70
2009,06,03,05,22,15.60
2009,06,03,05,23,15.60
2009,06,03,05,24,15.50
2009,06,03,05,25,15.50
2009,06,03,05,26,15.40
2009,06,03,05,27,15.40
2009,06,03,05,28,15.30
2009,06,03,05,29,15.30
2009,06,03,05,30,15.20
2009,06,03,05,31,15.20
2009,06,03,05,32,15.10
2009,06,03,05,33,15.10
2009,06,03,05,34,15.00
2009,06,03,05,35,15.00
2009,06,03,05,36,15.00
2009,06,03,05,37,15.00
2009,06,03,05,38,15.00
2009,06,03,05,39,15.00
2009,06,03,05,40,15.00
2009,06,03,05,41,15.00
2009,06,03,05,42,15.00
2009,06,03,05,43,15.00
2009,06,03,05,44,14.90
2009,06,03,05,45,14.90
2009,06,03,05,46,14.90
2009,06,03,05,47,14.90
2009,06,03,05,48,14.90
2009,06,03,05,49,14.90
2009,06,03,05,50,14.90
2009,06,03,05,51,14.90
2009,06,03,05,52,15.00
2009,06,03,05,53,15.00
2009,06,03,05,54,15.00
2009,06,03,05,55,15.00
2009,06,03,05,56,15.00
2009,06,03,05,57,15.00
2009,06,03,05,58,15.00
2009,06,03,05,59,15.00
2009,06,03,06,00,15.00
2009,06,03,06,01,15.00
2009,06,03,06,02,15.00
2009,06,03,06,03,15.00
2009,06,03,06,04,15.00
2009,06,03,06,05,15.00
2009,06,03,06,06,15.00
2009,06,03,06,07,15.00
2009,06,03,06,08,15.00
2009,06,03,06,09,15.00
2009,06,03,06,10,15.00
2009,06,03,06,11,15.00
2009,06,03,06,12,15.00
2009,06,03,06,13,15.00
2009,06,03,06,14,15.00
2009,06,03,06,15,15.00
2009,06,03,06,16,15.00
2009,06,03,06,17,15.10
2009,06,03,06,18,15.10
2009,06,03,06,19,15.10
2009,06,03,06,20,15.20
2009,06,03,06,21,15.20
2009,06,03,06,22,15.30
2009,06,03,06,23,15.30
2009,06,03,06,24,15.30
2009,06,03,06,25,15.30
2009,06,03,06,26,15.40
2009,06,03,06,27,15.40
2009,06,03,06,28,15.40
2009,06,03,06,29,15.40
2009,06,03,06,30,15.40
2009,06,03,06,31,15.40
2009,06,03,06,32,15.50
2009,06,03,06,33,15.50
2009,06,03,06,34,15.60
2009,06,03,06,35,15.60
2009,06,03,06,36,15.60
2009,06,03,06,37,15.70
2009,06,03,06,38,15.70
2009,06,03,06,39,15.70
2009,06,03,06,40,15.80
2009,06,03,06,41,15.80
2009,06,03,06,42,15.80
2009,06,03,06,43,15.90
2009,06,03,06,44,15.90
2009,06,03,06,45,16.00
2009,06,03,06,46,16.00
2009,06,03,06,47,16.10
2009,06,03,06,48,16.10
2009,06,03,06,49,16.20
2009,06,03,06,50,16.20
2009,06,03,06,51,16.20
2009,06,03,06,52,16.30
2009,06,03,06,53,16.30
2009,06,03,06,54,16.40
2009,06,03,06,55,16.40
2009,06,03,06,56,16.50
2009,06,03,06,57,16.50
2009,06,03,06,58,16.60
2009,06,03,06,59,16.60
2009,06,03,07,00,16.70
2009,06,03,07,01,16.80
2009,06,03,07,02,16.80
2009,06,03,07,03,16.90
2009,06,03,07,04,17.00
2009,06,03,07,05,17.10
2009,06,03,07,06,17.10
2009,06,03,07,07,17.20
2009,06,03,07,08,17.20
2009,06,03,07,09,17.30
2009,06,03,07,10,17.30
2009,06,03,07,11,17.30
2009,06,03,07,12,17.30
2009,06,03,07,13,17.40
2009,06,03,07,14,17.50
2009,06,03,07,15,17.50
2009,06,03,07,16,17.60
2009,06,03,07,17,17.70
2009,06,03,07,18,17.80
2009,06,03,07,19,17.90
2009,06,03,07,20,18.00
2009,06,03,07,21,18.10
2009,06,03,07,22,18.20
2009,06,03,07,23,18.30
2009,06,03,07,24,18.40
2009,06,03,07,25,18.60
2009,06,03,07,26,18.70
2009,06,03,07,27,18.90
2009,06,03,07,28,19.00
2009,06,03,07,29,19.10
2009,06,03,07,30,19.20
2009,06,03,07,31,19.40
2009,06,03,07,32,19.50
2009,06,03,07,33,19.70
2009,06,03,07,34,19.80
2009,06,03,07,35,19.90
2009,06,03,07,36,20.00
2009,06,03,07,37,20.10
2009,06,03,07,38,20.20
2009,06,03,07,39,20.30
2009,06,03,07,40,20.30
2009,06,03,07,41,20.30
2009,06,03,07,42,20.30
2009,06,03,07,43,20.30
2009,06,03,07,44,20.40
2009,06,03,07,45,20.40
2009,06,03,07,46,20.40
2009,06,03,07,47,20.40
2009,06,03,07,48,20.40
2009,06,03,07,49,20.40
2009,06,03,07,50,20.50
2009,06,03,07,51,20.50
2009,06,03,07,52,20.50
2009,06,03,07,53,20.60
2009,06,03,07,54,20.60
2009,06,03,07,55,20.60
2009,06,03,07,56,20.60
2009,06,03,07,57,20.60
2009,06,03,07,58,20.60
2009,06,03,07,59,20.70
2009,06,03,08,00,20.70
2009,06,03,08,01,20.70
2009,06,03,08,02,20.80
2009,06,03,08,03,20.80
2009,06,03,08,04,20.80
2009,06,03,08,05,20.90
2009,06,03,08,06,21.00
2009,06,03,08,07,21.00
2009,06,03,08,08,21.10
2009,06,03,08,09,21.10
2009,06,03,08,10,21.10
2009,06,03,08,11,21.20
2009,06,03,08,12,21.20
2009,06,03,08,13,21.30
2009,06,03,08,14,21.30
2009,06,03,08,15,21.40
2009,06,03,08,16,21.50
2009,06,03,08,17,21.50
2009,06,03,08,18,21.60
2009,06,03,08,19,21.70
2009,06,03,08,20,21.80
2009,06,03,08,21,21.80
2009,06,03,08,22,21.90
2009,06,03,08,23,22.00
2009,06,03,08,24,22.00
2009,06,03,08,25,22.10
2009,06,03,08,26,22.30
2009,06,03,08,27,22.40
2009,06,03,08,28,22.40
2009,06,03,08,29,22.40
2009,06,03,08,30,22.40
2009,06,03,08,31,22.40
2009,06,03,08,32,22.50
2009,06,03,08,33,22.50
2009,06,03,08,34,22.50
2009,06,03,08,35,22.60
2009,06,03,08,36,22.60
2009,06,03,08,37,22.70
2009,06,03,08,38,22.70
2009,06,03,08,39,22.80
2009,06,03,08,40,22.90
2009,06,03,08,41,22.90
2009,06,03,08,42,22.90
2009,06,03,08,43,22.90
2009,06,03,08,44,22.90
2009,06,03,08,45,22.90
2009,06,03,08,46,22.90
2009,06,03,08,47,22.80
2009,06,03,08,48,22.80
2009,06,03,08,49,22.80
2009,06,03,08,50,22.80
2009,06,03,08,51,22.80
2009,06,03,08,52,22.80
2009,06,03,08,53,22.80
2009,06,03,08,54,22.80
2009,06,03,08,55,22.90
2009,06,03,08,56,22.90
2009,06,03,08,57,22.90
2009,06,03,08,58,22.90
2009,06,03,08,59,22.80
2009,06,03,09,00,22.60
2009,06,03,09,01,22.50
2009,06,03,09,02,22.40
2009,06,03,09,03,22.30
2009,06,03,09,04,22.20
2009,06,03,09,05,22.10
2009,06,03,09,06,22.00
2009,06,03,09,07,21.90
2009,06,03,09,08,21.80
2009,06,03,09,09,21.80
2009,06,03,09,10,21.80
2009,06,03,09,11,21.80
2009,06,03,09,12,21.80
2009,06,03,09,13,21.80
2009,06,03,09,14,21.80
2009,06,03,09,15,21.80
2009,06,03,09,16,21.70
2009,06,03,09,17,21.70
2009,06,03,09,18,21.70
2009,06,03,09,19,21.60
2009,06,03,09,20,21.60
2009,06,03,09,21,21.50
2009,06,03,09,22,21.50
2009,06,03,09,23,21.40
2009,06,03,09,24,21.40
2009,06,03,09,25,21.40
2009,06,03,09,26,21.40
2009,06,03,09,27,21.40
2009,06,03,09,28,21.40
2009,06,03,09,29,21.40
2009,06,03,09,30,21.40
2009,06,03,09,31,21.40
2009,06,03,09,32,21.40
2009,06,03,09,33,21.40
2009,06,03,09,34,21.40
2009,06,03,09,35,21.50
2009,06,03,09,36,21.60
2009,06,03,09,37,21.70
2009,06,03,09,38,21.70
2009,06,03,09,39,21.70
2009,06,03,09,40,21.80
2009,06,03,09,41,21.80
2009,06,03,09,42,21.80
2009,06,03,09,43,21.80
2009,06,03,09,44,21.80
2009,06,03,09,45,21.80
2009,06,03,09,46,21.80
2009,06,03,09,47,21.90
2009,06,03,09,48,21.90
2009,06,03,09,49,22.00
2009,06,03,09,50,22.00
2009,06,03,09,51,21.90
2009,06,03,09,52,21.90
2009,06,03,09,53,21.80
2009,06,03,09,54,21.80
2009,06,03,09,55,21.80
2009,06,03,09,56,21.70
2009,06,03,09,57,21.70
2009,06,03,09,58,21.70
2009,06,03,09,59,21.70
2009,06,03,10,00,21.60
2009,06,03,10,01,21.60
2009,06,03,10,02,21.70
2009,06,03,10,03,21.70
2009,06,03,10,04,21.60
2009,06,03,10,05,21.70
2009,06,03,10,06,21.70
2009,06,03,10,07,21.70
2009,06,03,10,08,21.70
2009,06,03,10,09,21.70
2009,06,03,10,10,21.70
2009,06,03,10,11,21.70
2009,06,03,10,12,21.70
2009,06,03,10,13,21.70
2009,06,03,10,14,21.70
2009,06,03,10,15,21.70
2009,06,03,10,16,21.70
2009,06,03,10,17,21.70
2009,06,03,10,18,21.70
2009,06,03,10,19,21.70
2009,06,03,10,20,21.70
2009,06,03,10,21,21.60
2009,06,03,10,22,21.60
2009,06,03,10,23,21.60
2009,06,03,10,24,21.60
2009,06,03,10,25,21.60
2009,06,03,10,26,21.60
2009,06,03,10,27,21.60
2009,06,03,10,28,21.70
2009,06,03,10,29,21.80
2009,06,03,10,30,21.80
2009,06,03,10,31,21.90
2009,06,03,10,32,22.00
2009,06,03,10,33,22.00
2009,06,03,10,34,22.10
2009,06,03,10,35,22.10
2009,06,03,10,36,22.20
2009,06,03,10,37,22.20
2009,06,03,10,38,22.30
2009,06,03,10,39,22.30
2009,06,03,10,40,22.30
2009,06,03,10,41,22.40
2009,06,03,10,42,22.40
2009,06,03,10,43,22.50
2009,06,03,10,44,22.60
2009,06,03,10,45,22.60
2009,06,03,10,46,22.70
2009,06,03,10,47,22.70
2009,06,03,10,48,22.70
2009,06,03,10,49,22.70
2009,06,03,10,50,22.60
2009,06,03,10,51,22.50
2009,06,03,10,52,22.50
2009,06,03,10,53,22.40
2009,06,03,10,54,22.40
2009,06,03,10,55,22.40
2009,06,03,10,56,22.40
2009,06,03,10,57,22.40
2009,06,03,10,58,22.50
2009,06,03,10,59,22.50
2009,06,03,11,00,22.60
2009,06,03,11,01,22.70
2009,06,03,11,02,22.70
2009,06,03,11,03,22.80
2009,06,03,11,04,22.80
2009,06,03,11,05,22.80
2009,06,03,11,06,22.80
2009,06,03,11,07,22.80
2009,06,03,11,08,22.80
2009,06,03,11,09,22.80
2009,06,03,11,10,22.90
2009,06,03,11,11,22.90
2009,06,03,11,12,23.00
2009,06,03,11,13,23.10
2009,06,03,11,14,23.10
2009,06,03,11,15,23.10
2009,06,03,11,16,23.10
2009,06,03,11,17,23.10
2009,06,03,11,18,23.10
2009,06,03,11,19,23.20
2009,06,03,11,20,23.20
2009,06,03,11,21,23.20
2009,06,03,11,22,23.30
2009,06,03,11,23,23.40
2009,06,03,11,24,23.40
2009,06,03,11,25,23.50
2009,06,03,11,26,23.60
2009,06,03,11,27,23.70
2009,06,03,11,28,23.80
2009,06,03,11,29,23.90
2009,06,03,11,30,24.00
2009,06,03,11,31,24.10
2009,06,03,11,32,24.20
2009,06,03,11,33,24.20
2009,06,03,11,34,24.20
2009,06,03,11,35,24.10
2009,06,03,11,36,24.20
2009,06,03,11,37,24.20
2009,06,03,11,38,24.30
2009,06,03,11,39,24.40
2009,06,03,11,40,24.50
2009,06,03,11,41,24.60
2009,06,03,11,42,24.80
2009,06,03,11,43,24.80
2009,06,03,11,44,24.90
2009,06,03,11,45,24.90
2009,06,03,11,46,25.00
2009,06,03,11,47,25.00
2009,06,03,11,48,25.10
2009,06,03,11,49,25.10
2009,06,03,11,50,25.10
2009,06,03,11,51,25.10
2009,06,03,11,52,25.10
2009,06,03,11,53,25.10
2009,06,03,11,54,25.10
2009,06,03,11,55,25.20
2009,06,03,11,56,25.30
2009,06,03,11,57,25.30
2009,06,03,11,58,25.30
2009,06,03,11,59,25.30
2009,06,03,12,00,25.30
2009,06,03,12,01,25.30
2009,06,03,12,02,25.40
2009,06,03,12,03,25.40
2009,06,03,12,04,25.50
2009,06,03,12,05,25.60
2009,06,03,12,06,25.60
2009,06,03,12,07,25.60
2009,06,03,12,08,25.50
2009,06,03,12,09,25.50
2009,06,03,12,10,25.50
2009,06,03,12,11,25.60
2009,06,03,12,12,25.70
2009,06,03,12,13,25.70
2009,06,03,12,14,25.80
2009,06,03,12,15,25.80
2009,06,03,12,16,25.80
2009,06,03,12,17,25.80
2009,06,03,12,18,25.80
2009,06,03,12,19,25.80
2009,06,03,12,20,25.80
2009,06,03,12,21,25.80
2009,06,03,12,22,25.80
2009,06,03,12,23,25.80
2009,06,03,12,24,25.80
2009,06,03,12,25,25.80
2009,06,03,12,26,25.80
2009,06,03,12,27,25.80
2009,06,03,12,28,25.80
2009,06,03,12,29,25.80
2009,06,03,12,30,25.80
2009,06,03,12,31,25.70
2009,06,03,12,32,25.70
2009,06,03,12,33,25.70
2009,06,03,12,34,25.70
2009,06,03,12,35,25.80
2009,06,03,12,36,25.80
2009,06,03,12,37,25.90
2009,06,03,12,38,25.90
2009,06,03,12,39,26.00
2009,06,03,12,40,26.10
2009,06,03,12,41,26.20
2009,06,03,12,42,26.30
2009,06,03,12,43,26.30
2009,06,03,12,44,26.30
2009,06,03,12,45,26.30
2009,06,03,12,46,26.40
2009,06,03,12,47,26.40
2009,06,03,12,48,26.40
2009,06,03,12,49,26.40
2009,06,03,12,50,26.50
2009,06,03,12,51,26.50
2009,06,03,12,52,26.50
2009,06,03,12,53,26.50
2009,06,03,12,54,26.40
2009,06,03,12,55,26.30
2009,06,03,12,56,26.20
2009,06,03,12,57,26.20
2009,06,03,12,58,26.30
2009,06,03,12,59,26.30
2009,06,03,13,00,26.30
2009,06,03,13,01,26.20
2009,06,03,13,02,26.20
2009,06,03,13,03,26.20
2009,06,03,13,04,26.20
2009,06,03,13,05,26.20
2009,06,03,13,06,26.30
2009,06,03,13,07,26.30
2009,06,03,13,08,26.30
2009,06,03,13,09,26.40
2009,06,03,13,10,26.40
2009,06,03,13,11,26.50
2009,06,03,13,12,26.50
2009,06,03,13,13,26.60
2009,06,03,13,14,26.60
2009,06,03,13,15,26.60
2009,06,03,13,16,26.60
2009,06,03,13,17,26.60
2009,06,03,13,18,26.50
2009,06,03,13,19,26.50
2009,06,03,13,20,26.60
2009,06,03,13,21,26.60
2009,06,03,13,22,26.60
2009,06,03,13,23,26.60
2009,06,03,13,24,26.60
2009,06,03,13,25,26.60
2009,06,03,13,26,26.70
2009,06,03,13,27,26.70
2009,06,03,13,28,26.70
2009,06,03,13,29,26.70
2009,06,03,13,30,26.70
2009,06,03,13,31,26.70
2009,06,03,13,32,26.70
2009,06,03,13,33,26.80
2009,06,03,13,34,26.90
2009,06,03,13,35,27.00
2009,06,03,13,36,27.10
2009,06,03,13,37,27.20
2009,06,03,13,38,27.20
2009,06,03,13,39,27.30
2009,06,03,13,40,27.30
2009,06,03,13,41,27.30
2009,06,03,13,42,27.30
2009,06,03,13,43,27.30
2009,06,03,13,44,27.30
2009,06,03,13,45,27.30
2009,06,03,13,46,27.30
2009,06,03,13,47,27.20
2009,06,03,13,48,27.10
2009,06,03,13,49,27.00
2009,06,03,13,50,26.80
2009,06,03,13,51,26.80
2009,06,03,13,52,26.70
2009,06,03,13,53,26.60
2009,06,03,13,54,26.60
2009,06,03,13,55,26.60
2009,06,03,13,56,26.60
2009,06,03,13,57,26.60
2009,06,03,13,58,26.60
2009,06,03,13,59,26.70
2009,06,03,14,00,26.80
2009,06,03,14,01,26.90
2009,06,03,14,02,27.00
2009,06,03,14,03,27.00
2009,06,03,14,04,27.00
2009,06,03,14,05,27.00
2009,06,03,14,06,26.90
2009,06,03,14,07,26.90
2009,06,03,14,08,26.80
2009,06,03,14,09,26.90
2009,06,03,14,10,27.00
2009,06,03,14,11,27.20
2009,06,03,14,12,27.30
2009,06,03,14,13,27.30
2009,06,03,14,14,27.40
2009,06,03,14,15,27.40
2009,06,03,14,16,27.40
2009,06,03,14,17,27.50
2009,06,03,14,18,27.60
2009,06,03,14,19,27.70
2009,06,03,14,20,27.80
2009,06,03,14,21,27.80
2009,06,03,14,22,27.90
2009,06,03,14,23,28.00
2009,06,03,14,24,28.10
2009,06,03,14,25,28.20
2009,06,03,14,26,28.30
2009,06,03,14,27,28.30
2009,06,03,14,28,28.40
2009,06,03,14,29,28.40
2009,06,03,14,30,28.50
2009,06,03,14,31,28.60
2009,06,03,14,32,28.60
2009,06,03,14,33,28.50
2009,06,03,14,34,28.40
2009,06,03,14,35,28.30
2009,06,03,14,36,28.30
2009,06,03,14,37,28.30
2009,06,03,14,38,28.30
2009,06,03,14,39,28.30
2009,06,03,14,40,28.40
2009,06,03,14,41,28.30
2009,06,03,14,42,28.30
2009,06,03,14,43,28.20
2009,06,03,14,44,28.20
2009,06,03,14,45,28.10
2009,06,03,14,46,28.10
2009,06,03,14,47,28.20
2009,06,03,14,48,28.20
2009,06,03,14,49,28.30
2009,06,03,14,50,28.30
2009,06,03,14,51,28.40
2009,06,03,14,52,28.40
2009,06,03,14,53,28.50
2009,06,03,14,54,28.50
2009,06,03,14,55,28.60
2009,06,03,14,56,28.60
2009,06,03,14,57,28.70
2009,06,03,14,58,28.70
2009,06,03,14,59,28.70
2009,06,03,15,00,28.70
2009,06,03,15,01,28.70
2009,06,03,15,02,28.60
2009,06,03,15,03,28.60
2009,06,03,15,04,28.60
2009,06,03,15,05,28.60
2009,06,03,15,06,28.70
2009,06,03,15,07,28.80
2009,06,03,15,08,28.80
2009,06,03,15,09,28.90
2009,06,03,15,10,28.90
2009,06,03,15,11,28.90
2009,06,03,15,12,29.00
2009,06,03,15,13,29.10
2009,06,03,15,14,29.20
2009,06,03,15,15,29.30
2009,06,03,15,16,29.40
2009,06,03,15,17,29.40
2009,06,03,15,18,29.40
2009,06,03,15,19,29.30
2009,06,03,15,20,29.20
2009,06,03,15,21,29.10
2009,06,03,15,22,29.10
2009,06,03,15,23,29.20
2009,06,03,15,24,29.20
2009,06,03,15,25,29.30
2009,06,03,15,26,29.30
2009,06,03,15,27,29.30
2009,06,03,15,28,29.30
2009,06,03,15,29,29.40
2009,06,03,15,30,29.40
2009,06,03,15,31,29.50
2009,06,03,15,32,29.60
2009,06,03,15,33,29.70
2009,06,03,15,34,29.70
2009,06,03,15,35,29.80
2009,06,03,15,36,29.80
2009,06,03,15,37,29.70
2009,06,03,15,38,29.70
2009,06,03,15,39,29.60
2009,06,03,15,40,29.50
2009,06,03,15,41,29.40
2009,06,03,15,42,29.40
2009,06,03,15,43,29.40
2009,06,03,15,44,29.40
2009,06,03,15,45,29.40
2009,06,03,15,46,29.50
2009,06,03,15,47,29.50
2009,06,03,15,48,29.50
2009,06,03,15,49,29.50
2009,06,03,15,50,29.60
2009,06,03,15,51,29.60
2009,06,03,15,52,29.60
2009,06,03,15,53,29.60
2009,06,03,15,54,29.60
2009,06,03,15,55,29.60
2009,06,03,15,56,29.70
2009,06,03,15,57,29.80
2009,06,03,15,58,29.90
2009,06,03,15,59,30.00
2009,06,03,16,00,30.10
2009,06,03,16,01,30.20
2009,06,03,16,02,30.20
2009,06,03,16,03,30.30
2009,06,03,16,04,30.30
2009,06,03,16,05,30.30
2009,06,03,16,06,30.30
2009,06,03,16,07,30.20
2009,06,03,16,08,30.10
2009,06,03,16,09,29.90
2009,06,03,16,10,29.60
2009,06,03,16,11,29.30
2009,06,03,16,12,29.10
2009,06,03,16,13,29.00
2009,06,03,16,14,28.90
2009,06,03,16,15,28.90
2009,06,03,16,16,28.80
2009,06,03,16,17,28.80
2009,06,03,16,18,28.80
2009,06,03,16,19,28.70
2009,06,03,16,20,28.70
2009,06,03,16,21,28.60
2009,06,03,16,22,28.60
2009,06,03,16,23,28.60
2009,06,03,16,24,28.50
2009,06,03,16,25,28.60
2009,06,03,16,26,28.70
2009,06,03,16,27,28.80
2009,06,03,16,28,28.90
2009,06,03,16,29,29.00
2009,06,03,16,30,29.10
2009,06,03,16,31,29.10
2009,06,03,16,32,29.20
2009,06,03,16,33,29.20
2009,06,03,16,34,29.20
2009,06,03,16,35,29.30
2009,06,03,16,36,29.20
2009,06,03,16,37,29.20
2009,06,03,16,38,29.10
2009,06,03,16,39,29.10
2009,06,03,16,40,29.20
2009,06,03,16,41,29.20
2009,06,03,16,42,29.20
2009,06,03,16,43,29.30
2009,06,03,16,44,29.30
2009,06,03,16,45,29.30
2009,06,03,16,46,29.20
2009,06,03,16,47,29.30
2009,06,03,16,48,29.30
2009,06,03,16,49,29.40
2009,06,03,16,50,29.60
2009,06,03,16,51,29.70
2009,06,03,16,52,29.80
2009,06,03,16,53,29.80
2009,06,03,16,54,29.90
2009,06,03,16,55,29.80
2009,06,03,16,56,29.70
2009,06,03,16,57,29.60
2009,06,03,16,58,29.50
2009,06,03,16,59,29.50
2009,06,03,17,00,29.40
2009,06,03,17,01,29.40
2009,06,03,17,02,29.40
2009,06,03,17,03,29.50
2009,06,03,17,04,29.50
2009,06,03,17,05,29.60
2009,06,03,17,06,29.70
2009,06,03,17,07,29.70
2009,06,03,17,08,29.80
2009,06,03,17,09,29.90
2009,06,03,17,10,30.00
2009,06,03,17,11,30.10
2009,06,03,17,12,30.10
2009,06,03,17,13,30.00
2009,06,03,17,14,30.00
2009,06,03,17,15,30.10
2009,06,03,17,16,30.30
2009,06,03,17,17,30.50
2009,06,03,17,18,30.60
2009,06,03,17,19,30.70
2009,06,03,17,20,30.80
2009,06,03,17,21,30.90
2009,06,03,17,22,30.90
2009,06,03,17,23,30.80